Regional Weather Roundup
Issued by NWS

Home | Current Version | Previous Version | Graphics & Text | Print | Product List | Glossary On
Versions: 1 2 3 4 5 6 7 8 9 10 11 12 13 14 15 16 17 18 19 20 21 22 23 24 25 26 27 28
000
ASUS45 KBOI 241310
RWRID

IDAHO REGIONAL WEATHER ROUNDUP
NATIONAL WEATHER SERVICE BOISE ID
700 AM MDT TUE MAY 24 2016

NOTE: "FAIR" INDICATES FEW OR NO CLOUDS BELOW 12000 FEET
WITH NO SIGNIFICANT WEATHER AND/OR OBSTRUCTIONS TO VISIBILITY

IDZ012-014-241400-
SOUTHWEST IDAHO


CITY           SKY/WX    TMP DP  RH WIND       PRES   REMARKS
BOISE          PTCLDY    47  40  76 SW3       29.84S
CALDWELL       PTCLDY    47  41  80 SW6       29.86R
MOUNTAIN HOME  MOCLDY    52  42  69 NW14      29.83R
$$

IDZ016-017-241400-
SOUTHCENTRAL IDAHO


CITY           SKY/WX    TMP DP  RH WIND       PRES   REMARKS
BURLEY         PTCLDY    42  41  96 CALM      29.84R
JEROME         CLOUDY    45  41  86 E5        29.85R
TWIN FALLS     CLOUDY    46  38  73 S8        29.85R
$$

IDZ019>023-241400-
SOUTHEAST IDAHO


CITY           SKY/WX    TMP DP  RH WIND       PRES   REMARKS
IDAHO FALLS    CLEAR     37  34  89 CALM      29.87S
POCATELLO      CLEAR     41  37  86 CALM      29.86S
REXBURG        SUNNY     36  31  82 NE5       29.88S WCI  32
$$

IDZ006-010-011-018-031-032-241400-
CENTRAL IDAHO MOUNTAINS


CITY           SKY/WX    TMP DP  RH WIND       PRES   REMARKS
MCCALL         PTCLDY    34  32  92 CALM      29.88S
HAILEY         PTCLDY    37  30  75 W12       29.90S WCI  30
STANLEY          N/A     27  23  85 CALM      29.95R
SALMON         MOCLDY    41  34  75 CALM      29.89F
CHALLIS        CLEAR     35  30  82 CALM      29.91R
$$

IDZ002-004-006-007-026-241400-
NORTHERN IDAHO


CITY           SKY/WX    TMP DP  RH WIND       PRES   REMARKS
LEWISTON       CLOUDY    52  46  80 CALM      29.89R
LOWELL           N/A     47  45  93 CALM      29.94R
COEUR D`ALENE  CLOUDY    48  46  93 CALM      29.88R
MULLAN PASS    LGT RAIN  35  35 100 NW3       29.89S VSB 1/4
$$




USA.gov is the U.S. government's official web portal to all federal, state and local government web resources and services.